Tillbaka till svenska Fidonet
English   Information   Debug  
FILM   0/18
FNEWS_PUBLISH   4912
FN_SYSOP   42201
FN_SYSOP_OLD1   71952
FTP_FIDO   0/2
FTSC_PUBLIC   0/13972
FUNNY   0/4886
GENEALOGY.EUR   0/71
GET_INFO   105
GOLDED   0/408
HAM   919/16648
HOLYSMOKE   0/6791
HOT_SITES   0/1
HTMLEDIT   0/71
HUB203   466
HUB_100   264
HUB_400   39
HUMOR   0/29
IC   0/2851
INTERNET   0/424
INTERUSER   0/3
IP_CONNECT   719
JAMNNTPD   0/233
JAMTLAND   0/47
KATTY_KORNER   0/41
LAN   0/16
LINUX-USER   0/19
LINUXHELP   0/1155
LINUX   0/22300
LINUX_BBS   0/957
mail   18.68
mail_fore_ok   249
MENSA   0/341
MODERATOR   0/102
MONTE   0/992
MOSCOW_OKLAHOMA   0/1245
MUFFIN   0/783
MUSIC   0/321
N203_STAT   938
N203_SYSCHAT   313
NET203   321
NET204   69
NET_DEV   0/10
NORD.ADMIN   0/101
NORD.CHAT   0/2572
NORD.FIDONET   189
NORD.HARDWARE   0/28
NORD.KULTUR   0/114
NORD.PROG   0/32
NORD.SOFTWARE   0/88
NORD.TEKNIK   0/58
NORD   0/453
OCCULT_CHAT   0/93
OS2BBS   0/787
OS2DOSBBS   0/580
OS2HW   0/42
OS2INET   0/37
OS2LAN   0/134
OS2PROG   0/36
OS2REXX   0/113
OS2USER-L   207
OS2   0/4830
OSDEBATE   0/18996
PASCAL   0/490
PERL   0/457
PHP   0/45
POINTS   0/405
POLITICS   0/29554
POL_INC   0/14731
PSION   103
R20_ADMIN   1133
R20_AMATORRADIO   0/2
R20_BEST_OF_FIDONET   16
R20_CHAT   0/896
R20_DEPP   0/3
R20_DEV   400
R20_ECHO2   1821
R20_ECHOPRES   0/35
R20_ESTAT   0/719
R20_FIDONETPROG...
...RAM.MYPOINT
  0/2
R20_FIDONETPROGRAM   0/22
R20_FIDONET   0/248
R20_FILEFIND   0/24
R20_FILEFOUND   0/22
R20_HIFI   0/3
R20_INFO2   3713
R20_INTERNET   0/12940
R20_INTRESSE   0/60
R20_INTR_KOM   0/99
R20_KANDIDAT.CHAT   42
R20_KANDIDAT   28
R20_KOM_DEV   112
R20_KONTROLL   0/13360
R20_KORSET   0/18
R20_LOKALTRAFIK   0/24
R20_MODERATOR   0/1852
R20_NC   76
R20_NET200   245
R20_NETWORK.OTH...
...ERNETS
  0/13
R20_OPERATIVSYS...
...TEM.LINUX
  0/44
R20_PROGRAMVAROR   0/1
R20_REC2NEC   534
R20_SFOSM   0/341
R20_SF   0/108
R20_SPRAK.ENGLISH   0/1
R20_SQUISH   107
R20_TEST   2
R20_WORST_OF_FIDONET   20
RAR   0/9
RA_MULTI   106
RA_UTIL   0/162
REGCON.EUR   0/2068
REGCON   0/13
SCIENCE   0/1206
SF   0/239
SHAREWARE_SUPPORT   0/5146
SHAREWRE   0/14
SIMPSONS   0/169
STATS_OLD1   0/2539.065
STATS_OLD2   0/2530
STATS_OLD3   0/2395.095
STATS_OLD4   0/1692.25
SURVIVOR   0/495
SYSOPS_CORNER   0/3
SYSOP   0/84
TAGLINES   0/112
TEAMOS2   0/4530
TECH   0/2617
TEST.444   0/105
TRAPDOOR   0/19
TREK   0/755
TUB   0/290
UFO   0/40
UNIX   0/1316
USA_EURLINK   0/102
USR_MODEMS   0/1
VATICAN   0/2740
VIETNAM_VETS   0/14
VIRUS   0/378
VIRUS_INFO   0/201
VISUAL_BASIC   0/473
WHITEHOUSE   0/5187
WIN2000   0/101
WIN32   0/30
WIN95   0/4291
WIN95_OLD1   0/70272
WINDOWS   0/1517
WWB_SYSOP   0/419
WWB_TECH   0/810
ZCC-PUBLIC   0/1
ZEC   4

 
4DOS   0/134
ABORTION   0/7
ALASKA_CHAT   0/506
ALLFIX_FILE   0/1313
ALLFIX_FILE_OLD1   0/7997
ALT_DOS   0/152
AMATEUR_RADIO   0/1039
AMIGASALE   0/14
AMIGA   0/331
AMIGA_INT   0/1
AMIGA_PROG   0/20
AMIGA_SYSOP   0/26
ANIME   0/15
ARGUS   0/924
ASCII_ART   0/340
ASIAN_LINK   0/651
ASTRONOMY   0/417
AUDIO   0/92
AUTOMOBILE_RACING   0/105
BABYLON5   0/17862
BAG   135
BATPOWER   0/361
BBBS.ENGLISH   0/382
BBSLAW   0/109
BBS_ADS   0/5290
BBS_INTERNET   0/507
BIBLE   0/3563
BINKD   0/1119
BINKLEY   0/215
BLUEWAVE   0/2173
CABLE_MODEMS   0/25
CBM   0/46
CDRECORD   0/66
CDROM   0/20
CLASSIC_COMPUTER   0/378
COMICS   0/15
CONSPRCY   0/899
COOKING   41333
COOKING_OLD1   0/24719
COOKING_OLD2   0/40862
COOKING_OLD3   0/37489
COOKING_OLD4   0/35496
COOKING_OLD5   9370
C_ECHO   0/189
C_PLUSPLUS   0/31
DIRTY_DOZEN   0/201
DOORGAMES   0/2262
DOS_INTERNET   0/196
duplikat   6102
ECHOLIST   0/18295
EC_SUPPORT   0/318
ELECTRONICS   0/359
ELEKTRONIK.GER   1534
ENET.LINGUISTIC   0/13
ENET.POLITICS   0/4
ENET.SOFT   0/11701
ENET.SYSOP   34289
ENET.TALKS   0/32
ENGLISH_TUTOR   0/2000
EVOLUTION   0/1335
FDECHO   0/217
FDN_ANNOUNCE   0/7068
FIDONEWS   25048
FIDONEWS_OLD1   0/49742
FIDONEWS_OLD2   0/35949
FIDONEWS_OLD3   0/30874
FIDONEWS_OLD4   0/37224
FIDO_SYSOP   12922
FIDO_UTIL   0/180
FILEFIND   0/209
FILEGATE   0/212
Möte HAM, 16648 texter
 lista första sista föregående nästa
Text 776, 735 rader
Skriven 2006-01-13 01:01:38 av Amsat List (1:323/120.0)
Ärende: 
========
SB KEPS @ AMSAT  $ORB06012.O
Orbital Elements  06012.OSCAR

HR AMSAT ORBITAL ELEMENTS FOR OSCAR SATELLITES
FROM WA5QGD FORT WORTH,TX January 12, 2006
Send SUBSCRIBE KEPS/UNSUBSCRIBE KEPS to majordomo@amsat.org only
BID: ORB06012.O
TO ALL RADIO AMATEURS BT

Satellite: AO-07
Catalog number: 07530
Epoch time:      06011.68616162
Element set:    0542
Inclination:      101.5983 deg
RA of node:       058.3884 deg
Eccentricity:    0.0012057
Arg of perigee:   190.1807 deg
Mean anomaly:     169.9022 deg
Mean motion:   12.53571755 rev/day
Decay rate:       -2.8e-07 rev/day^2
Epoch rev:           42577
Checksum:              298

Satellite: AO-10
Catalog number: 14129
Epoch time:      06010.93081919
Element set:    0248
Inclination:      027.4762 deg
RA of node:       354.5937 deg
Eccentricity:    0.6031882
Arg of perigee:   252.5160 deg
Mean anomaly:     036.2581 deg
Mean motion:   02.05872528 rev/day
Decay rate:      -5.47e-06 rev/day^2
Epoch rev:           16981
Checksum:              308

Satellite: UO-11
Catalog number: 14781
Epoch time:      06011.53959140
Element set:    0969
Inclination:      098.2079 deg
RA of node:       018.4239 deg
Eccentricity:    0.0010157
Arg of perigee:   051.7990 deg
Mean anomaly:     308.4109 deg
Mean motion:   14.79369191 rev/day
Decay rate:       2.33e-06 rev/day^2
Epoch rev:           17260
Checksum:              307

Satellite: RS-10/11
Catalog number: 18129
Epoch time:      06011.69814920
Element set:    0896
Inclination:      082.9249 deg
RA of node:       083.9249 deg
Eccentricity:    0.0011579
Arg of perigee:   159.8667 deg
Mean anomaly:     200.2945 deg
Mean motion:   13.72769654 rev/day
Decay rate:        3.4e-07 rev/day^2
Epoch rev:           92968
Checksum:              352

Satellite: RS-15
Catalog number: 23439
Epoch time:      06011.74122637
Element set:    0926
Inclination:      064.8147 deg
RA of node:       130.2500 deg
Eccentricity:    0.0167315
Arg of perigee:   280.5810 deg
Mean anomaly:     077.6307 deg
Mean motion:   11.27551358 rev/day
Decay rate:       -3.9e-07 rev/day^2
Epoch rev:           45490
Checksum:              286

Satellite: FO-29
Catalog number: 24278
Epoch time:      06011.98056483
Element set:    0136
Inclination:      098.5185 deg
RA of node:       038.0718 deg
Eccentricity:    0.0351154
Arg of perigee:   355.1222 deg
Mean anomaly:     004.6531 deg
Mean motion:   13.52917652 rev/day
Decay rate:       -6.0e-07 rev/day^2
Epoch rev:           46442
Checksum:              295

Satellite: SO-33
Catalog number: 25509
Epoch time:      06012.83597556
Element set:     557
Inclination:      031.4323 deg
RA of node:       287.5200 deg
Eccentricity:    0.0354881
Arg of perigee:   198.4795 deg
Mean anomaly:     160.2669 deg
Mean motion:   14.28074066 rev/day
Decay rate:       3.96e-06 rev/day^2
Epoch rev:           37681
Checksum:              334

Satellite: AO-40
Catalog number: 26609
Epoch time:      06012.51728963
Element set:     662
Inclination:      007.3776 deg
RA of node:       260.4840 deg
Eccentricity:    0.7912587
Arg of perigee:   121.4686 deg
Mean anomaly:     337.9617 deg
Mean motion:   01.25579167 rev/day
Decay rate:      .00000000 rev/day^2
Epoch rev:            2389
Checksum:              316

Satellite: VO-52
Catalog number: 28650
Epoch time:      06012.73442326
Element set:     228
Inclination:      097.8895 deg
RA of node:       088.4216 deg
Eccentricity:    0.0027869
Arg of perigee:   145.1547 deg
Mean anomaly:     215.1470 deg
Mean motion:   14.81031803 rev/day
Decay rate:       1.10e-06 rev/day^2
Epoch rev:            3737
Checksum:              295

/EX
SB KEPS @ AMSAT  $ORB06012.D
Orbital Elements  06012.MICROS

HR AMSAT ORBITAL ELEMENTS FOR THE MICROSATS
FROM WA5QGD FORT WORTH,TX January 12, 2006
Send SUBSCRIBE KEPS/UNSUBSCRIBE KEPS to majordomo@amsat.org only
BID: ORB06012.D
TO ALL RADIO AMATEURS BT

Satellite: AO-16
Catalog number: 20439
Epoch time:      06011.60329073
Element set:     648
Inclination:      098.1935 deg
RA of node:       030.3068 deg
Eccentricity:    0.0010269
Arg of perigee:   305.6044 deg
Mean anomaly:     054.4182 deg
Mean motion:   14.31706947 rev/day
Decay rate:        1.4e-07 rev/day^2
Epoch rev:           83391
Checksum:              282

Satellite: WO-18
Catalog number: 20441
Epoch time:      06012.08662526
Element set:     848
Inclination:      098.1990 deg
RA of node:       035.3284 deg
Eccentricity:    0.0011449
Arg of perigee:   305.5772 deg
Mean anomaly:     054.4338 deg
Mean motion:   14.31778562 rev/day
Decay rate:        2.4e-07 rev/day^2
Epoch rev:           83404
Checksum:              300

Satellite: LO-19
Catalog number: 20442
Epoch time:      06011.79982700
Element set:     583
Inclination:      098.2040 deg
RA of node:       039.7975 deg
Eccentricity:    0.0011472
Arg of perigee:   305.0753 deg
Mean anomaly:     054.9360 deg
Mean motion:   14.31951231 rev/day
Decay rate:       -6.0e-08 rev/day^2
Epoch rev:           83407
Checksum:              287

Satellite: UO-22
Catalog number: 21575
Epoch time:      06011.45057603
Element set:    0601
Inclination:      098.2737 deg
RA of node:       334.2712 deg
Eccentricity:    0.0007323
Arg of perigee:   175.2931 deg
Mean anomaly:     184.8317 deg
Mean motion:   14.39529023 rev/day
Decay rate:       -2.0e-07 rev/day^2
Epoch rev:           76046
Checksum:              277

Satellite: KO-23
Catalog number: 22077
Epoch time:      06011.64598870
Element set:    0683
Inclination:      066.0876 deg
RA of node:       069.8890 deg
Eccentricity:    0.0008156
Arg of perigee:   205.8048 deg
Mean anomaly:     154.2566 deg
Mean motion:   12.86434954 rev/day
Decay rate:       -3.7e-07 rev/day^2
Epoch rev:           63040
Checksum:              325

